This is the latest recevied weather packets stored in our database for station/object KC1HBM. If no packets are shown the sender has not sent any weather packets the latest 10 day(s).
| Time | Temp. | Humidity | Pressure | Rain* | Wind** | Luminosity | Snow |
|---|---|---|---|---|---|---|---|
| 1778039888 | 13.33° C | 84% | 1005.9 hPa | 0 mm | - | 0 W/m² | - |
| 1778039586 | 13.33° C | 84% | 1006 hPa | 0 mm | - | 0 W/m² | - |
| 1778039283 | 12.78° C | 84% | 1006.1 hPa | 0 mm | - | 0 W/m² | - |
| 1778038980 | 12.78° C | 84% | 1005.9 hPa | 0 mm | - | 0 W/m² | - |
| 1778038677 | 12.78° C | 84% | 1005.9 hPa | 0 mm | - | 0 W/m² | - |
| 1778038374 | 12.78° C | 84% | 1005.9 hPa | 0 mm | - | 0 W/m² | - |
| 1778038071 | 12.78° C | 84% | 1006.1 hPa | 0 mm | - | 0 W/m² | - |
| 1778037768 | 12.78° C | 85% | 1005.9 hPa | 0 mm | - | 0 W/m² | - |
| 1778037464 | 12.22° C | 86% | 1005.9 hPa | 0 mm | - | 0 W/m² | - |
| 1778037162 | 12.22° C | 86% | 1005.8 hPa | 0 mm | - | 0 W/m² | - |
| 1778036860 | 12.22° C | 86% | 1006 hPa | 0 mm | - | 0 W/m² | - |
| 1778036557 | 12.22° C | 86% | 1006.1 hPa | 0 mm | - | 0 W/m² | - |
| 1778036254 | 12.78° C | 85% | 1006.1 hPa | 0 mm | - | 0 W/m² | - |
| 1778035950 | 12.78° C | 85% | 1006 hPa | 0 mm | - | 0 W/m² | - |
| 1778035647 | 12.78° C | 84% | 1006.1 hPa | 0 mm | - | 0 W/m² | - |
| 1778035344 | 12.78° C | 84% | 1006.2 hPa | 0 mm | - | 0 W/m² | - |
| 1778035040 | 12.78° C | 84% | 1006.1 hPa | 0 mm | - | 0 W/m² | - |
| 1778034737 | 12.78° C | 84% | 1005.8 hPa | 0 mm | - | 0 W/m² | - |
| 1778034434 | 12.78° C | 83% | 1006 hPa | 0 mm | - | 0 W/m² | - |
| 1778034132 | 13.33° C | 82% | 1006.2 hPa | 0 mm | - | 0 W/m² | - |
| 1778033830 | 13.33° C | 81% | 1006.1 hPa | 0 mm | - | 0 W/m² | - |
| 1778033527 | 13.33° C | 81% | 1006.4 hPa | 0 mm | - | 0 W/m² | - |
| 1778033223 | 13.33° C | 81% | 1006.3 hPa | 0 mm | - | 0 W/m² | - |
| 1778032921 | 13.89° C | 81% | 1006.1 hPa | 0 mm | - | 0 W/m² | - |
| 1778032618 | 13.89° C | 81% | 1006.2 hPa | 0 mm | - | 0 W/m² | - |
* Rain latest hour (hover to see other rain measurements)
** Current wind speed in m/s (hover to see current wind gust speed)